Weather History for Hettinger, ND

Change the Weather History Date:

Friday, November 22, 2013

  Actual Average Record
Temperature  
Mean Temperature 14 °F -  
Max Temperature 25 °F 37 °F 64 °F (2002)
Min Temperature 3 °F 14 °F -11 °F (2010)
Degree Days  
Heating Degree Days 51 39  
Month to date heating degree days 763 748  
Since 1 July heating degree days 1714 1803  
Moisture  
Dew Point 5 °F    
Average Humidity 71    
Maximum Humidity 83    
Minimum Humidity 50    
Precipitation  
Precipitation T in 0.01 in 0.19 in (2010)
Month to date precipitation 0.20 0.57  
Year to date precipitation 24.73 15.76  
Sea Level Pressure  
Sea Level Pressure 30.69 in    
Wind  
Wind Speed 10 mph (North)    
Max Wind Speed 21 mph    
Max Gust Speed 25 mph    
Visibility 10 miles    
Events Snow    
T = Trace of Precipitation, MM = Missing Value Source: NWS Daily Summary

Daily Weather History Graph

Daily Weather History Graph

Search for Another Location

Airport:

Trip Planner

Search our weather history database for the weather conditions in past years. The results will help you decide how hot, cold, wet, or windy it might be!

Date:

Astronomy

Nov. 22, 2013 Rise Set
Actual Time 7:01 AM MST 4:12 PM MST
Civil Twilight 6:27 AM MST 4:45 PM MST
Nautical Twilight 5:51 AM MST 5:22 PM MST
Astronomical Twilight 5:15 AM MST 5:57 PM MST
Moon 8:50 PM MST (11/22) 10:42 AM MST (11/22)
Length of Visible Light 10h 17m
Length of Day
9h 11m
Waning Gibbous, 77% of the Moon is Illuminated
Nov 22
Waning Gibbous
Nov 25
Last Quarter
Dec 2
New
Dec 9
First Quarter
Dec 17
Full

Hourly Weather History & Observations

Time (MST) Temp. Windchill Dew Point Humidity Pressure Visibility Wind Dir Wind Speed Gust Speed Precip Events Conditions
12:53 AM 12.0 °F -3.4 °F 5.0 °F 73% 30.59 in 10.0 mi WSW 13.8 mph - N/A   Clear
1:53 AM 7.0 °F -5.7 °F 1.9 °F 80% 30.59 in 10.0 mi WSW 8.1 mph - N/A   Clear
2:53 AM 5.0 °F -4.1 °F -0.9 °F 76% 30.59 in 10.0 mi West 4.6 mph - N/A   Clear
3:53 AM 10.9 °F -2.6 °F 1.9 °F 67% 30.56 in 10.0 mi WSW 10.4 mph - N/A   Clear
4:53 AM 9.0 °F -3.2 °F 1.0 °F 70% 30.58 in 10.0 mi West 8.1 mph - N/A   Clear
5:53 AM 5.0 °F -5.6 °F -2.0 °F 73% 30.61 in 10.0 mi NW 5.8 mph - N/A   Clear
6:53 AM 6.1 °F -4.3 °F -0.9 °F 73% 30.61 in 10.0 mi WNW 5.8 mph - N/A   Clear
7:53 AM 15.1 °F 5.2 °F 5.0 °F 64% 30.61 in 10.0 mi WNW 6.9 mph - N/A   Clear
8:53 AM 21.0 °F 8.6 °F 9.0 °F 60% 30.63 in 10.0 mi WNW 12.7 mph - N/A   Clear
9:53 AM 23.0 °F 8.7 °F 7.0 °F 50% 30.64 in 10.0 mi NW 18.4 mph - N/A   Clear
10:53 AM 24.1 °F 13.1 °F 9.0 °F 53% 30.67 in 10.0 mi NNW 11.5 mph - N/A   Clear
11:53 AM 24.1 °F 12.5 °F 10.0 °F 55% 30.67 in 10.0 mi North 12.7 mph - N/A   Partly Cloudy
12:53 PM 24.1 °F 14.4 °F 10.0 °F 55% 30.67 in 10.0 mi North 9.2 mph - N/A   Clear
1:53 PM 23.0 °F 13.9 °F 10.0 °F 58% 30.69 in 10.0 mi North 8.1 mph - N/A   Clear
2:53 PM 21.9 °F 10.4 °F 12.0 °F 66% 30.72 in 10.0 mi NNE 11.5 mph - N/A   Overcast
3:02 PM 21.2 °F 9.5 °F 10.4 °F 63% 30.57 in 10.0 mi North 11.5 mph - N/A   Overcast
3:26 PM 19.4 °F 8.6 °F 10.4 °F 68% 30.59 in 10.0 mi NNE 9.2 mph - N/A   Mostly Cloudy
3:53 PM 19.0 °F 8.2 °F 10.9 °F 71% 30.74 in 10.0 mi North 9.2 mph - N/A   Overcast
4:53 PM 17.1 °F 5.0 °F 10.0 °F 74% 30.77 in 10.0 mi NNE 10.4 mph - N/A   Overcast
5:53 PM 15.1 °F 1.1 °F 8.1 °F 74% 30.79 in 10.0 mi NNE 12.7 mph - N/A   Overcast
6:53 PM 12.0 °F -2.7 °F 7.0 °F 80% 30.81 in 10.0 mi NE 12.7 mph - N/A   Overcast
7:53 PM 10.9 °F -3.4 °F 6.1 °F 81% 30.82 in 10.0 mi NE 11.5 mph - N/A   Overcast
8:43 PM 8.6 °F -3.7 °F 5.0 °F 85% 30.67 in 8.0 mi NE 8.1 mph - N/A   Overcast
8:53 PM 8.1 °F -7.0 °F 3.9 °F 83% 30.83 in 9.0 mi ENE 11.5 mph - N/A   Overcast
9:21 PM 6.8 °F -7.8 °F 3.2 °F 85% 30.67 in 6.0 mi ENE 10.4 mph - 0.00 in Snow Light Snow
9:43 PM 6.8 °F -5.9 °F 3.2 °F 85% 30.68 in 10.0 mi NE 8.1 mph - 0.00 in   Overcast
9:53 PM 6.1 °F -5.6 °F 1.9 °F 83% 30.84 in 10.0 mi ENE 6.9 mph - 0.00 in   Overcast
10:53 PM 5.0 °F -5.6 °F -0.0 °F 80% 30.85 in 10.0 mi ENE 5.8 mph - N/A   Overcast
11:23 PM 5.0 °F -5.6 °F -0.4 °F 78% 30.70 in 10.0 mi East 5.8 mph - N/A   Overcast
11:53 PM 5.0 °F -4.1 °F -2.0 °F 73% 30.86 in 7.0 mi East 4.6 mph - N/A   Overcast